User: anonymous   Login
Location: Glencliff
(36.1226°N, 86.7183°W)
Time: 17:58:54
(UTC+00:00)
Language:

STARLINK-81 - Orbit

View from above orbital plane
View from above orbital plane
View from above satellite
View from above satellite

Ground track
Ground track

The orbit data is extracted from the following two-line orbital elements,

1 44292U 19029BK  19322.80661387  .00000971  00000-0  86040-4 0  9997
2 44292  53.0069  90.4395 0001981 133.8460 226.2691 15.05487528 28137
Epoch (UTC): 18 November 2019 19:21:31
Eccentricity: 0.0001981
inclination: 53.0069°
perigee height: 548 km
apogee height: 551 km
right ascension of ascending node: 90.4395°
argument of perigee: 133.8460°
revolutions per day: 15.05487528
mean anomaly at epoch: 226.2691°
orbit number at epoch: 2813

The dashed part of the orbit path shows where the satellite is in the earth's shadow,  

DLR